Weather Roundup
Issued by NWS

Home | Current Version | Previous Version | Text Only | Print | Product List | Glossary On
Versions: 1 2 3 4 5 6 7 8 9 10 11 12 13 14 15 16 17 18 19 20 21 22 23 24 25 26 27 28 29 30 31 32 33 34 35 36 37 38 39 40 41 42 43 44 45 46 47 48 49 50
000
NZUS93 KARX 041910
HRRWXR

CURRENT HOURLY OBSERVATIONS ACROSS
MUCH OF THE UPPER MISSISSIPPI VALLEY
NATIONAL WEATHER SERVICE LA CROSSE WI
200 PM CDT SAT JUL 04 2015


...SOUTHEAST MINNESOTA...


CITY           SKY/WX    TMP DP  RH WIND       PRES   REMARKS
ROCHESTER      SUNNY     80  64  58 SW9       29.99S
ROCHESTER/MAYO FAIR      79  62  55 S7        29.98S
WINONA         SUNNY     81  63  54 CALM      29.96S
AUSTIN         MOSUNNY   81  63  54 S9        29.98S
ALBERT LEA     SUNNY     81  61  50 SW6       29.98S
DODGE CENTER   SUNNY     79  64  61 SW8       29.98S
PRESTON        MOSUNNY   78  63  60 S8        29.99S
OWATONNA       SUNNY     81  64  57 S8        29.97S
FARIBAULT      MOSUNNY   81  66  61 S7        29.96S
$$

...ELSEWHERE IN MINNESOTA...


CITY           SKY/WX    TMP DP  RH WIND       PRES   REMARKS
MINNEAPOLIS    PTSUNNY   83  64  52 S6        29.93S HAZE
INTNL FALLS    MOSUNNY   79  57  46 VRB6      29.90F
DULUTH         SUNNY     75  60  59 SE9       29.96S
RED WING       SUNNY     82  64  54 SE5       29.93S HAZE
REDWOOD FALLS  SUNNY     84  64  50 SW9       29.92F
MANKATO        PTSUNNY   81  66  61 S9        29.95S
WORTHINGTON    MOSUNNY   79  61  53 S14       29.97S
FAIRMONT       SUNNY     79  59  50 S10       29.97S
$$

...SOUTHWEST WISCONSIN...


CITY           SKY/WX    TMP DP  RH WIND       PRES   REMARKS
LA CROSSE      SUNNY     82  64  54 S9        29.96S
PRAIRIE DU CHI SUNNY     80  56  44 S6        29.98S
BOSCOBEL       SUNNY     82  58  43 CALM      29.98F
LONE ROCK      SUNNY     81  59  47 W8        29.99S
PLATTEVILLE    SUNNY     79  60  51 SW8       30.00F
FORT MC COY    MOSUNNY   81  59  47 SW3       29.97F
CAMP DOUGLAS   MOSUNNY   80  66  64 SW8       29.97S
VIROQUA        FAIR      80  58  48 S9        30.00S
WIS DELLS      SUNNY     80  58  47 SW8       29.99S
$$

...ELSEWHERE IN WISCONSIN...


CITY           SKY/WX    TMP DP  RH WIND       PRES   REMARKS
MILWAUKEE      MOSUNNY   79  60  52 SE10      29.99S
MADISON        MOSUNNY   80  57  45 SW5       29.99S
GREEN BAY      MOSUNNY   80  64  58 N3        29.97F
EAU CLAIRE     SUNNY     82  63  52 W5        29.94F
BLACK RVR FLS  FAIR      83  60  45 SW6       29.96S
MEDFORD        MOSUNNY   79  57  47 S3        29.98S
WAUSAU         SUNNY     81  56  42 VRB3      29.96S
WIS RAPIDS     MOSUNNY   81  63  54 VRB5      29.98F
MARSHFIELD     MOSUNNY   80  60  50 SW3       29.97F HAZE
RICE LAKE      MOSUNNY   81  60  48 SE6       29.97S HAZE
$$

...NORTHEAST IOWA...


CITY           SKY/WX    TMP DP  RH WIND       PRES   REMARKS
DECORAH          N/A    N/A N/A N/A MISG        N/A
MASON CITY     SUNNY     80  62  54 SW10G17   30.01S
CHARLES CITY   MOSUNNY   77  64  65 SW8       30.01S
OELWEIN        SUNNY     77  61  57 SW9G15    30.01S
$$

...ELSEWHERE IN IOWA...


CITY           SKY/WX    TMP DP  RH WIND       PRES   REMARKS
DES MOINES     MOSUNNY   81  57  43 S8        29.99F
IOWA CITY      MOSUNNY   79  61  53 S8        30.02S
FORT DODGE     SUNNY     79  57  47 S8        30.00F
$$

...NORTHERN ILLINOIS...


CITY           SKY/WX    TMP DP  RH WIND       PRES   REMARKS
CHICAGO-OHARE  MOSUNNY   80  56  43 CALM      30.00S
CHICAGO-MIDWAY MOSUNNY   82  56  40 VRB6      29.99F
MOLINE         SUNNY     79  59  50 SW6       30.01S
ROCKFORD       MOSUNNY   80  60  50 W3        30.02S
PEORIA         MOSUNNY   80  60  50 S7        30.02F
$$

NOTE: "FAIR" INDICATES FEW OR NO CLOUDS BELOW 12,000 FEET WITH NO
SIGNIFICANT WEATHER AND/OR OBSTRUCTIONS TO VISIBILITY. WIND
SPEEDS ARE IN MILES-PER-HOUR.



USA.gov is the U.S. government's official web portal to all federal, state and local government web resources and services.